Wind_Speed
8 7 4 3 2 1 2 3 2 3 3 5 7 8 9 9 11 12 12 13 13 13 13 13 11 10 9 9 8 9 8 8 7 7 7 7 7 6 6 6 6 5 5 4
9 7 5 6 5 4 3 4 4 4 5 6 7 8 8 8 9 10 12 13 13 13 13 12 11 10 10 9 9 9 8 8 8 8 8 8 8 7 7 7 7 7 6 6
10 7 8 8 7 6 5 5 5 6 6 7 9 9 7 9 9 9 11 12 13 13 13 12 12 12 11 10 9 9 9 8 7 7 8 8 8 8 8 8 8 8 7 7
11 9 10 10 9 8 7 7 7 6 6 9 9 11 9 10 9 9 10 13 15 15 13 12 12 13 12 11 10 10 10 9 8 8 8 9 9 9 9 9 9 9 8 8
14 13 12 11 10 10 9 8 8 8 9 11 12 12 11 11 9 9 11 13 14 15 15 13 13 13 13 12 11 11 11 10 9 9 9 10 11 10 10 10 10 10 10 10
14 13 13 12 11 12 11 11 11 11 12 12 13 13 12 12 10 10 11 12 14 15 14 14 14 14 14 14 13 11 11 10 10 10 10 10 11 11 11 11 11 11 11 11
14 14 13 13 13 13 13 13 13 13 13 13 13 14 13 12 11 11 11 12 13 14 14 15 15 15 15 15 14 13 12 12 11 11 11 11 12 12 12 12 12 12 13 13
15 15 14 15 15 14 14 15 15 16 16 16 15 15 14 14 12 11 11 13 14 14 15 16 16 16 15 15 15 14 13 13 13 13 13 13 13 13 13 13 13 13 13 14
16 16 16 16 16 15 14 15 16 17 18 18 17 17 17 15 13 11 12 14 15 16 16 16 16 16 16 16 16 16 15 15 15 14 14 14 14 14 15 15 15 14 14 15
18 18 17 17 17 16 16 16 16 18 19 20 20 20 18 16 12 12 12 13 14 15 15 16 17 18 17 17 17 17 16 15 15 15 15 15 16 16 16 16 16 15 15 15
21 22 20 20 18 17 17 17 18 19 21 22 22 21 18 15 13 13 13 13 13 14 16 17 18 18 18 18 18 18 17 17 17 16 16 17 17 17 17 17 16 16 16 15
22 23 23 21 20 19 19 19 20 21 21 22 24 22 19 16 14 14 14 14 14 16 17 18 19 19 19 19 19 18 18 18 17 17 17 18 18 18 18 18 17 17 17 17
24 25 24 23 22 22 21 21 21 22 22 22 23 22 19 19 16 16 16 17 17 18 19 19 20 20 20 19 19 19 19 18 18 18 19 19 19 19 19 19 18 18 18 18
26 27 27 25 24 23 23 23 22 22 22 22 22 21 19 19 18 18 18 19 19 19 19 20 20 21 21 20 20 20 20 20 19 19 20 19 19 19 19 19 19 19 19 18
27 28 27 27 26 25 25 25 24 24 23 23 22 22 20 19 20 20 20 20 19 20 20 21 21 21 21 21 21 21 21 21 21 21 21 20 19 20 20 19 19 19 19 19
28 28 28 27 27 27 26 25 25 25 24 23 23 23 21 21 22 22 22 22 21 20 21 22 22 23 22 22 22 22 23 23 22 21 21 20 20 21 21 21 20 20 20 20
29 29 29 30 29 29 28 25 25 25 26 24 24 24 23 23 23 23 24 23 22 21 21 22 23 23 23 23 23 24 24 24 23 23 22 22 21 21 21 22 21 22 22 21
30 30 30 30 30 32 29 27 26 26 26 25 25 24 25 25 25 24 25 23 23 23 23 23 24 24 23 23 23 24 24 24 23 23 23 22 22 22 22 22 23 23 23 23
30 30 30 30 31 31 30 28 27 27 26 26 27 26 25 25 25 24 24 25 25 24 23 24 25 25 24 24 25 25 24 24 24 23 23 23 23 24 24 24 24 24 24 24
28 29 31 31 31 31 29 29 27 27 27 27 27 28 27 27 26 24 24 25 26 26 25 26 26 26 24 24 25 24 24 24 24 24 24 24 24 24 24 25 25 24 24 24
29 29 31 31 31 31 30 29 27 28 28 27 27 27 28 28 28 27 27 25 25 26 27 28 28 26 25 25 25 25 25 25 25 24 24 24 25 25 25 25 24 24 24 24
29 29 30 31 32 31 30 29 28 28 28 27 27 28 28 28 28 28 28 28 27 27 28 28 28 28 27 26 26 25 25 25 25 25 25 25 25 25 25 25 25 25 25 24
28 29 30 31 32 31 31 30 29 28 29 29 29 28 28 28 28 29 29 29 29 29 29 29 28 29 28 27 27 26 25 25 25 25 25 25 25 25 26 26 25 26 25 25
28 28 29 29 30 30 30 30 29 29 29 29 29 28 29 28 29 29 28 28 29 29 29 30 30 29 28 26 26 26 25 25 24 25 25 26 26 26 26 26 25 25 25 26
27 28 29 29 29 29 29 29 29 30 30 30 30 29 28 29 28 28 28 28 29 29 28 29 30 29 28 27 26 26 25 25 25 26 26 26 27 27 26 26 26 26 25 25
27 28 29 28 28 29 28 30 30 30 30 31 31 31 30 29 29 28 29 28 28 28 28 28 28 27 26 26 25 25 25 25 25 25 26 26 26 26 25 25 25 25 25 24
Wind_Direction
199 200 185 198 194 246 322 327 330 339 346 349 352 349 349 357 9 12 11 13 12 9 9 9 7 3 1 358 354 355 352 348 347 346 351 349 341 334 325 317 308 302 296 295
209 203 206 221 225 235 286 310 305 318 321 322 331 332 327 338 352 3 4 6 6 5 4 2 2 355 352 348 348 345 344 339 339 340 339 339 336 332 324 319 313 305 301 295
215 207 214 221 227 235 256 277 281 299 309 306 320 321 317 325 340 352 355 356 356 355 354 353 353 351 344 340 339 338 336 329 327 330 332 331 329 325 322 319 311 306 302 298
216 217 227 225 234 240 252 265 273 275 284 296 301 300 304 315 332 339 343 347 348 348 348 348 347 346 339 335 333 333 332 325 319 318 322 320 320 319 317 316 311 308 300 296
220 224 232 235 241 247 255 261 264 262 272 279 286 288 289 299 312 324 335 338 339 340 344 348 348 345 339 334 332 329 329 325 319 317 315 314 314 311 310 309 306 304 301 301
227 228 238 243 242 249 256 252 253 259 269 270 278 282 292 295 297 311 321 325 330 336 340 343 341 338 336 333 332 328 325 323 319 317 314 311 310 307 304 302 302 301 297 296
228 231 239 246 243 242 248 248 249 254 259 268 276 281 292 300 296 302 309 315 325 332 335 336 336 334 331 328 326 323 319 318 314 310 307 306 304 302 301 299 298 297 296 295
239 239 241 246 249 251 245 244 247 255 259 267 271 277 288 296 292 299 307 309 316 322 325 326 327 326 326 325 323 319 316 314 311 307 303 301 302 300 299 299 297 297 296 295
249 247 244 247 249 249 244 243 247 256 261 264 269 276 279 287 284 290 300 305 311 317 320 321 320 321 320 319 318 316 313 309 305 303 300 295 296 298 299 297 295 295 295 294
254 251 249 251 253 248 247 247 248 252 259 264 270 275 278 276 283 288 295 305 309 311 314 315 315 316 316 316 316 314 311 307 303 301 300 297 294 295 297 297 294 293 295 293
254 253 250 251 254 255 251 250 252 255 258 264 268 272 276 278 284 285 296 303 306 306 308 311 311 312 314 314 313 313 311 308 304 298 296 294 291 292 294 295 295 293 292 290
252 254 252 251 254 255 254 256 254 257 260 261 265 270 274 276 281 285 289 294 300 304 305 306 308 310 311 312 312 310 308 306 304 300 297 294 291 290 291 292 293 291 291 292
250 251 252 251 249 251 252 253 255 259 262 262 265 269 273 273 280 284 287 293 299 301 302 304 306 308 308 309 310 309 308 306 303 301 300 297 292 291 291 292 293 292 291 291
250 252 252 251 251 252 250 249 253 258 261 264 266 268 269 274 278 282 285 288 293 297 299 302 303 304 304 305 306 307 306 304 302 300 300 298 294 292 292 292 293 293 292 291
249 252 253 253 253 252 252 251 252 254 256 259 263 266 269 274 279 281 283 283 288 294 295 297 299 302 302 302 302 302 302 302 301 299 298 296 292 291 291 291 291 291 292 291
249 251 253 252 251 252 252 251 252 253 255 257 262 264 267 272 276 278 280 281 284 291 292 294 297 299 300 300 301 301 301 300 299 298 297 294 292 291 291 289 288 288 288 288
251 253 253 252 250 250 251 252 254 254 256 258 261 262 265 268 272 274 277 280 283 289 291 295 294 294 297 298 300 301 300 300 298 298 297 295 293 293 290 288 286 286 288 287
251 252 254 254 252 249 252 254 254 253 256 257 260 263 264 266 269 272 276 279 282 286 289 292 292 290 292 294 297 299 299 298 297 297 296 295 295 294 293 290 288 288 288 287
250 251 254 256 255 254 252 254 253 253 256 257 257 261 262 265 269 274 277 279 280 284 289 291 292 290 291 292 294 296 296 294 294 295 295 295 293 293 293 293 291 290 289 288
250 252 254 257 258 257 256 256 255 255 257 258 259 258 261 263 266 272 276 279 281 284 287 291 292 288 289 291 293 295 295 294 293 292 292 292 292 293 294 293 291 290 290 289
248 250 253 256 259 259 260 259 258 258 259 259 260 260 262 264 268 272 274 276 280 283 286 288 290 288 288 289 291 293 294 293 292 292 291 291 292 293 292 291 290 289 289 288
248 249 251 253 257 259 260 259 259 260 260 259 260 261 263 267 270 272 274 275 277 279 282 286 287 287 288 289 291 291 291 291 291 291 291 292 292 291 290 290 290 290 288 287
249 250 252 254 257 261 261 259 261 261 261 260 260 260 260 263 267 269 272 276 277 278 280 283 285 288 289 291 291 289 288 290 290 289 289 290 290 290 290 290 290 290 287 286
250 251 253 254 256 259 260 259 261 263 262 261 260 261 260 262 266 269 271 273 275 277 279 282 284 287 288 287 287 287 288 289 289 289 289 289 289 290 289 288 288 288 288 286
253 254 255 255 256 258 260 258 262 262 261 261 260 260 264 264 267 269 270 272 275 277 277 281 284 286 287 286 287 289 289 290 289 288 288 288 287 288 289 287 286 286 287 288
255 256 255 255 258 261 260 260 261 262 261 261 260 261 264 267 268 271 271 272 274 276 278 281 283 285 285 286 286 287 289 291 290 289 288 289 290 289 290 290 291 290 289 288
Height
5920 5921 5922 5922 5922 5922 5922 5922 5922 5922 5921 5921 5920 5919 5919 5917 5916 5915 5914 5912 5910 5909 5907 5905 5903 5902 5900 5898 5897 5895 5894 5893 5892 5891 5890 5889 5888 5887 5887 5886 5885 5884 5884 5883
5919 5920 5921 5921 5921 5921 5921 5921 5921 5921 5920 5919 5919 5918 5917 5916 5915 5914 5913 5911 5910 5908 5907 5905 5903 5900 5898 5897 5895 5895 5893 5892 5891 5890 5889 5888 5887 5886 5885 5884 5883 5882 5881 5881
5917 5919 5919 5919 5919 5920 5920 5920 5920 5920 5919 5918 5917 5917 5916 5915 5914 5913 5912 5910 5909 5907 5906 5904 5902 5900 5898 5896 5895 5894 5892 5890 5889 5888 5887 5886 5885 5884 5883 5882 5881 5880 5879 5879
5914 5916 5917 5917 5918 5918 5918 5918 5918 5918 5918 5917 5917 5916 5914 5913 5912 5911 5910 5909 5907 5906 5904 5903 5901 5898 5896 5895 5893 5891 5890 5888 5887 5886 5885 5884 5883 5882 5881 5880 5878 5877 5877 5876
5912 5913 5914 5915 5916 5916 5916 5915 5916 5916 5915 5915 5914 5914 5914 5912 5911 5910 5908 5908 5906 5904 5903 5901 5899 5897 5895 5893 5891 5889 5888 5886 5885 5884 5883 5882 5880 5879 5878 5877 5876 5875 5874 5873
5909 5910 5911 5912 5913 5913 5913 5913 5913 5913 5913 5912 5912 5912 5911 5910 5909 5908 5907 5906 5905 5903 5901 5899 5897 5895 5893 5891 5889 5887 5886 5884 5882 5881 5880 5879 5877 5876 5875 5874 5873 5872 5871 5870
5906 5907 5908 5909 5909 5910 5911 5911 5911 5910 5910 5909 5909 5908 5909 5907 5906 5906 5904 5903 5902 5901 5899 5897 5895 5893 5891 5888 5886 5885 5883 5881 5880 5878 5876 5875 5874 5873 5872 5871 5869 5868 5867 5866
5902 5904 5905 5905 5906 5906 5906 5907 5908 5908 5907 5906 5905 5904 5906 5904 5903 5902 5901 5900 5899 5898 5896 5894 5892 5890 5888 5886 5884 5882 5880 5878 5876 5875 5873 5872 5871 5870 5868 5867 5865 5864 5863 5862
5897 5899 5901 5901 5901 5902 5903 5903 5904 5903 5902 5902 5901 5901 5901 5900 5900 5899 5898 5897 5896 5895 5893 5891 5889 5887 5885 5883 5880 5878 5876 5875 5873 5871 5869 5868 5867 5866 5865 5863 5862 5860 5859 5858
5893 5894 5896 5897 5897 5898 5898 5899 5900 5899 5898 5897 5897 5897 5897 5897 5897 5896 5895 5894 5892 5891 5890 5888 5886 5883 5881 5879 5876 5874 5872 5870 5869 5867 5865 5864 5863 5862 5860 5859 5857 5856 5855 5853
5888 5889 5891 5891 5892 5892 5894 5894 5894 5894 5894 5893 5892 5894 5893 5893 5893 5893 5892 5890 5889 5887 5886 5885 5883 5880 5878 5875 5873 5870 5868 5866 5865 5863 5861 5860 5858 5857 5856 5854 5853 5851 5850 5849
5883 5884 5884 5886 5887 5887 5888 5888 5889 5889 5889 5888 5887 5890 5888 5888 5888 5888 5887 5886 5884 5883 5882 5880 5878 5876 5873 5871 5869 5866 5864 5862 5860 5858 5857 5855 5853 5852 5851 5849 5848 5846 5845 5844
5877 5878 5879 5880 5883 5882 5881 5882 5882 5883 5883 5882 5882 5885 5883 5882 5882 5882 5882 5881 5880 5879 5877 5875 5872 5870 5868 5866 5864 5861 5859 5857 5855 5853 5851 5849 5848 5846 5845 5843 5842 5841 5839 5838
5870 5871 5873 5874 5874 5875 5875 5876 5876 5877 5877 5876 5876 5877 5877 5877 5877 5877 5876 5876 5875 5873 5872 5870 5868 5865 5863 5861 5859 5856 5854 5852 5850 5848 5846 5844 5842 5840 5839 5838 5836 5835 5833 5832
5863 5864 5865 5866 5867 5868 5868 5869 5870 5871 5871 5871 5871 5870 5871 5871 5872 5872 5871 5871 5870 5868 5867 5865 5863 5860 5858 5856 5854 5852 5849 5847 5845 5843 5841 5839 5837 5835 5833 5832 5830 5829 5827 5826
5856 5857 5858 5859 5860 5860 5862 5863 5864 5864 5864 5864 5865 5865 5866 5866 5866 5866 5865 5865 5864 5862 5861 5859 5857 5855 5853 5851 5849 5846 5843 5841 5839 5837 5835 5833 5831 5829 5827 5826 5824 5822 5821 5819
5849 5850 5850 5852 5853 5853 5855 5857 5857 5857 5857 5858 5858 5860 5859 5859 5859 5859 5858 5858 5857 5856 5855 5853 5851 5849 5847 5845 5843 5840 5837 5835 5832 5830 5828 5826 5825 5823 5821 5820 5818 5816 5814 5813
5841 5842 5842 5843 5846 5846 5850 5849 5849 5850 5850 5851 5851 5852 5853 5853 5853 5852 5852 5851 5850 5850 5849 5847 5845 5843 5841 5839 5836 5834 5831 5829 5827 5824 5822 5820 5818 5816 5815 5813 5811 5810 5808 5806
5833 5834 5835 5836 5836 5838 5840 5841 5842 5843 5843 5844 5844 5845 5845 5846 5845 5845 5845 5844 5843 5843 5842 5840 5838 5836 5834 5832 5830 5827 5825 5823 5821 5819 5817 5814 5812 5810 5808 5806 5804 5802 5800 5799
5825 5825 5827 5827 5828 5829 5833 5834 5834 5836 5835 5837 5837 5838 5838 5838 5839 5839 5837 5836 5836 5836 5835 5833 5831 5829 5827 5825 5823 5820 5818 5816 5814 5812 5810 5808 5806 5804 5802 5799 5797 5795 5793 5791
5817 5818 5818 5819 5820 5821 5823 5824 5826 5828 5829 5830 5829 5830 5830 5831 5831 5832 5830 5829 5829 5829 5828 5826 5824 5822 5820 5818 5816 5813 5811 5809 5807 5805 5803 5801 5799 5797 5794 5792 5790 5788 5786 5784
5809 5810 5811 5811 5812 5815 5815 5816 5818 5818 5819 5820 5821 5822 5822 5823 5823 5823 5823 5822 5821 5821 5821 5819 5817 5815 5813 5810 5808 5806 5804 5802 5800 5798 5796 5794 5792 5790 5787 5785 5783 5781 5778 5777
5801 5803 5803 5804 5806 5807 5807 5808 5808 5809 5811 5812 5813 5814 5815 5815 5815 5815 5815 5814 5814 5813 5812 5811 5810 5808 5806 5803 5801 5799 5797 5795 5793 5791 5789 5787 5784 5782 5780 5778 5775 5773 5771 5769
5793 5794 5795 5796 5797 5798 5799 5800 5800 5801 5802 5803 5804 5805 5806 5807 5807 5806 5807 5806 5806 5805 5804 5803 5802 5800 5799 5796 5794 5792 5790 5788 5786 5784 5781 5779 5777 5775 5772 5770 5768 5766 5763 5762
5785 5786 5786 5787 5789 5789 5790 5791 5792 5793 5794 5794 5796 5797 5797 5798 5798 5798 5798 5798 5798 5797 5796 5795 5794 5793 5791 5789 5787 5785 5783 5781 5779 5777 5774 5771 5769 5767 5764 5762 5760 5758 5756 5754
5777 5778 5779 5780 5781 5782 5783 5783 5784 5784 5785 5786 5787 5788 5789 5789 5789 5789 5790 5790 5789 5789 5788 5787 5785 5784 5782 5781 5779 5778 5776 5774 5772 5769 5767 5764 5762 5760 5757 5754 5752 5750 5748 5746